Left ArrowRight Arrow

Hourly Observations for May 5, 2018

Temp ( °F °C ) Dew Point ( °F °C ) Humidity (%) Winds ( mph kmh ) Pressure ( in mb ) Visibility ( mi km ) Precip ( " mm )
12:56 am 00:56 Clear 68 19.9 63 17.1 84 84 Calm 30.10 1019 10 16 0.00 0.00
1:56 am 01:56 Clear 68 19.8 63 17 84 84 SSE 3 6 30.08 1019 10 16 0.00 0.00
2:56 am 02:56 Clear 66 18.7 60 15.6 82 82 Calm 30.07 1018 10 16 0.00 0.00
3:56 am 03:56 Clear 63 17.4 60 15.4 88 88 Calm 30.06 1018 10 16 0.00 0.00
4:56 am 04:56 Clear 61 16.3 58 14.6 90 90 Calm 30.06 1018 10 16 0.00 0.00
5:56 am 05:56 Clear 60 15.5 57 14 91 91 Calm 30.07 1018 10 16 0.00 0.00
6:56 am 06:56 Sunny 59 15.2 57 13.7 91 91 Calm 30.07 1018 10 16 0.00 0.00
7:56 am 07:56 Sunny 61 16.3 59 15.2 93 93 Calm 30.10 1019 9 14 0.00 0.00
8:56 am 08:56 Sunny 70 21 67 19.5 91 91 Calm 30.09 1019 10 16 0.00 0.00
9:56 am 09:56 Sunny 74 23.2 67 19.3 79 79 S 6 9 30.09 1019 10 16 0.00 0.00
10:56 am 10:56 Sunny 76 24.5 62 16.7 62 62 S 7 11 30.09 1019 10 16 0.00 0.00
11:56 am 11:56 Mostly Sunny 78 25.7 59 15.1 52 52 E 7 11 30.08 1019 10 16 0.00 0.00
12:56 pm 12:56 Partly Cloudy 81 27.3 58 14.6 46 46 S 9 15 30.06 1018 10 16 0.00 0.00
1:56 pm 13:56 Mostly Sunny 81 27.1 62 16.7 53 53 E 6 9 30.03 1017 10 16 0.00 0.00
2:56 pm 14:56 Sunny 82 27.8 63 17.3 53 53 S 8 13 30.01 1016 10 16 0.00 0.00
3:56 pm 15:56 Sunny 82 27.8 64 17.6 54 54 SSE 9 15 30.00 1016 10 16 0.00 0.00
4:56 pm 16:56 Partly Cloudy 82 27.9 65 18.3 56 56 ESE 9 15 30.00 1016 10 16 0.00 0.00
5:56 pm 17:56 Mostly Sunny 79 26.3 64 17.9 60 60 SE 9 15 29.99 1016 10 16 0.00 0.00
6:56 pm 18:56 Mostly Cloudy 77 24.9 64 17.8 65 65 ESE 12 19 29.99 1016 10 16 0.00 0.00
7:56 pm 19:56 Sunny 74 23.5 64 17.7 70 70 E 13 20 29.98 1015 10 16 0.00 0.00
8:56 pm 20:56 Mostly Cloudy 73 22.6 65 18.1 76 76 E 12 19 29.99 1016 10 16 0.00 0.00
9:56 pm 21:56 Partly Cloudy 72 22.2 66 18.8 81 81 E 7 11 29.99 1016 10 16 0.00 0.00
10:56 pm 22:56 Cloudy 73 22.5 67 19.2 82 82 ENE 5 7 29.99 1016 10 16 0.00 0.00
11:56 pm 23:56 Mostly Clear 72 22.3 67 19.4 84 84 Calm 29.97 1015 10 16 0.00 0.00

Powered by Vaisala Xweather